Time,TemperatureF,DewpointF,PressureIn,WindDirection,WindDirectionDegrees,WindSpeedMPH,WindSpeedGustMPH,Humidity,HourlyPrecipIn,Conditions,Clouds,dailyrainin,SoftwareType,DateUTC
2013-02-09 00:01:00,21.6,17.2,30.38,NW,310,3.0,3.0,83,0.00,,,0.00,Wunderground v.1.15,2013-02-09 05:01:00,
2013-02-09 00:02:00,21.5,17.1,30.38,NW,310,3.0,3.0,83,0.00,,,0.00,Wunderground v.1.15,2013-02-09 05:02:00,
2013-02-09 00:04:00,21.5,17.1,30.38,NW,316,3.0,5.0,83,0.00,,,0.00,Wunderground v.1.15,2013-02-09 05:04:00,
2013-02-09 00:07:00,21.4,17.0,30.38,WNW,299,3.0,5.0,83,0.00,,,0.00,Wunderground v.1.15,2013-02-09 05:07:00,
2013-02-09 00:09:00,21.3,16.9,30.38,NW,320,3.0,5.0,83,0.00,,,0.00,Wunderground v.1.15,2013-02-09 05:09:00,
2013-02-09 00:14:00,21.2,16.8,30.38,NW,315,3.0,6.0,83,0.00,,,0.00,Wunderground v.1.15,2013-02-09 05:14:00,
2013-02-09 00:18:00,21.1,17.0,30.38,NW,324,2.0,6.0,84,0.00,,,0.00,Wunderground v.1.15,2013-02-09 05:18:00,
2013-02-09 00:19:00,21.0,16.9,30.38,NW,315,2.0,2.0,84,0.00,,,0.00,Wunderground v.1.15,2013-02-09 05:19:00,
2013-02-09 00:22:00,21.0,16.9,30.38,NW,318,1.0,2.0,84,0.00,,,0.00,Wunderground v.1.15,2013-02-09 05:22:00,
2013-02-09 00:23:00,20.9,16.8,30.38,West,274,1.0,2.0,84,0.00,,,0.00,Wunderground v.1.15,2013-02-09 05:23:00,
2013-02-09 00:24:00,20.9,16.8,30.38,WNW,285,1.0,2.0,84,0.00,,,0.00,Wunderground v.1.15,2013-02-09 05:24:00,
2013-02-09 00:26:00,20.9,16.8,30.38,North,3,1.0,2.0,84,0.00,,,0.00,Wunderground v.1.15,2013-02-09 05:26:00,
2013-02-09 00:27:00,20.9,16.8,30.38,NW,313,1.0,2.0,84,0.00,,,0.00,Wunderground v.1.15,2013-02-09 05:27:00,
2013-02-09 00:30:00,20.8,16.7,30.38,WNW,289,1.0,1.0,84,0.00,,,0.00,Wunderground v.1.15,2013-02-09 05:30:00,
2013-02-09 00:33:00,20.7,16.6,30.39,NW,308,1.0,1.0,84,0.00,,,0.00,Wunderground v.1.15,2013-02-09 05:33:00,
2013-02-09 00:34:00,20.7,16.6,30.39,WSW,258,1.0,1.0,84,0.00,,,0.00,Wunderground v.1.15,2013-02-09 05:34:00,
2013-02-09 00:35:00,20.7,16.6,30.38,NNW,334,1.0,5.0,84,0.00,,,0.00,Wunderground v.1.15,2013-02-09 05:35:00,
2013-02-09 00:36:00,20.6,16.5,30.38,WNW,299,1.0,5.0,84,0.00,,,0.00,Wunderground v.1.15,2013-02-09 05:36:00,
2013-02-09 00:39:00,20.6,16.5,30.38,NNW,327,1.0,5.0,84,0.00,,,0.00,Wunderground v.1.15,2013-02-09 05:39:00,
2013-02-09 00:40:00,20.5,16.4,30.39,NNW,327,1.0,1.0,84,0.00,,,0.00,Wunderground v.1.15,2013-02-09 05:40:00,
2013-02-09 00:41:00,20.5,16.4,30.39,WNW,296,2.0,4.0,84,0.00,,,0.00,Wunderground v.1.15,2013-02-09 05:41:00,
2013-02-09 00:44:00,20.4,16.3,30.39,WNW,299,2.0,4.0,84,0.00,,,0.00,Wunderground v.1.15,2013-02-09 05:44:00,
2013-02-09 00:46:00,20.4,16.3,30.38,WNW,298,2.0,4.0,84,0.00,,,0.00,Wunderground v.1.15,2013-02-09 05:46:00,
2013-02-09 00:48:00,20.4,16.3,30.39,NW,308,2.0,4.0,84,0.00,,,0.00,Wunderground v.1.15,2013-02-09 05:48:00,
2013-02-09 00:49:00,20.4,16.3,30.39,WNW,294,2.0,2.0,84,0.00,,,0.00,Wunderground v.1.15,2013-02-09 05:49:00,
2013-02-09 00:51:00,20.4,16.3,30.39,WNW,299,2.0,2.0,84,0.00,,,0.00,Wunderground v.1.15,2013-02-09 05:51:00,
2013-02-09 00:54:00,20.3,16.2,30.39,WNW,291,2.0,2.0,84,0.00,,,0.00,Wunderground v.1.15,2013-02-09 05:54:00,
2013-02-09 00:57:00,20.3,16.5,30.39,WNW,289,1.0,2.0,85,0.00,,,0.00,Wunderground v.1.15,2013-02-09 05:57:00,
2013-02-09 00:59:00,20.3,16.5,30.39,WNW,299,1.0,2.0,85,0.00,,,0.00,Wunderground v.1.15,2013-02-09 05:59:00,
2013-02-09 01:00:00,20.2,16.1,30.39,NW,314,1.0,1.0,84,0.00,,,0.00,Wunderground v.1.15,2013-02-09 06:00:00,
2013-02-09 01:04:00,20.2,16.1,30.38,NNW,339,1.0,2.0,84,0.00,,,0.00,Wunderground v.1.15,2013-02-09 06:04:00,
2013-02-09 01:05:00,20.1,16.0,30.38,North,357,1.0,2.0,84,0.00,,,0.00,Wunderground v.1.15,2013-02-09 06:05:00,
2013-02-09 01:08:00,20.0,15.9,30.38,NW,308,1.0,3.0,84,0.00,,,0.00,Wunderground v.1.15,2013-02-09 06:08:00,
2013-02-09 01:12:00,19.8,15.7,30.38,WNW,299,1.0,2.0,84,0.00,,,0.00,Wunderground v.1.15,2013-02-09 06:12:00,
2013-02-09 01:14:00,19.7,15.6,30.38,WNW,291,1.0,2.0,84,0.00,,,0.00,Wunderground v.1.15,2013-02-09 06:14:00,
2013-02-09 01:16:00,19.6,15.8,30.39,WNW,291,1.0,2.0,85,0.00,,,0.00,Wunderground v.1.15,2013-02-09 06:16:00,
2013-02-09 01:18:00,19.5,15.7,30.39,WNW,291,1.0,2.0,85,0.00,,,0.00,Wunderground v.1.15,2013-02-09 06:18:00,
2013-02-09 01:20:00,19.4,15.6,30.39,WNW,295,1.0,1.0,85,0.00,,,0.00,Wunderground v.1.15,2013-02-09 06:20:00,
2013-02-09 01:23:00,19.2,15.4,30.40,WNW,282,1.0,2.0,85,0.00,,,0.00,Wunderground v.1.15,2013-02-09 06:23:00,
2013-02-09 01:25:00,19.1,15.3,30.39,WNW,291,1.0,2.0,85,0.00,,,0.00,Wunderground v.1.15,2013-02-09 06:25:00,
2013-02-09 01:28:00,19.0,15.2,30.39,West,266,1.0,2.0,85,0.00,,,0.00,Wunderground v.1.15,2013-02-09 06:28:00,
2013-02-09 01:30:00,18.9,15.1,30.39,WNW,291,1.0,1.0,85,0.00,,,0.00,Wunderground v.1.15,2013-02-09 06:30:00,
2013-02-09 01:31:00,18.8,15.0,30.39,WNW,291,1.0,1.0,85,0.00,,,0.00,Wunderground v.1.15,2013-02-09 06:31:00,
2013-02-09 01:35:00,18.6,14.8,30.39,WNW,296,1.0,2.0,85,0.00,,,0.00,Wunderground v.1.15,2013-02-09 06:35:00,
2013-02-09 01:37:00,18.5,15.0,30.40,NW,308,0.0,2.0,86,0.00,,,0.00,Wunderground v.1.15,2013-02-09 06:37:00,
2013-02-09 01:40:00,18.4,14.9,30.40,West,272,1.0,1.0,86,0.00,,,0.00,Wunderground v.1.15,2013-02-09 06:40:00,
2013-02-09 01:41:00,18.3,14.8,30.40,West,268,1.0,2.0,86,0.00,,,0.00,Wunderground v.1.15,2013-02-09 06:41:00,
2013-02-09 01:44:00,18.2,14.7,30.40,West,277,1.0,2.0,86,0.00,,,0.00,Wunderground v.1.15,2013-02-09 06:44:00,
2013-02-09 01:45:00,18.1,14.6,30.40,West,277,1.0,2.0,86,0.00,,,0.00,Wunderground v.1.15,2013-02-09 06:45:00,
2013-02-09 01:46:00,18.1,14.6,30.40,West,273,2.0,2.0,86,0.00,,,0.00,Wunderground v.1.15,2013-02-09 06:46:00,
2013-02-09 01:47:00,18.0,14.5,30.40,West,269,2.0,2.0,86,0.00,,,0.00,Wunderground v.1.15,2013-02-09 06:47:00,
2013-02-09 01:50:00,17.9,14.4,30.40,WNW,296,2.0,2.0,86,0.00,,,0.00,Wunderground v.1.15,2013-02-09 06:50:00,
2013-02-09 01:51:00,17.8,14.3,30.40,WNW,296,2.0,2.0,86,0.00,,,0.00,Wunderground v.1.15,2013-02-09 06:51:00,
2013-02-09 01:52:00,17.7,14.2,30.39,WNW,296,1.0,2.0,86,0.00,,,0.00,Wunderground v.1.15,2013-02-09 06:52:00,
2013-02-09 01:55:00,17.5,14.0,30.40,WNW,286,1.0,2.0,86,0.00,,,0.00,Wunderground v.1.15,2013-02-09 06:55:00,
2013-02-09 01:56:00,17.5,14.0,30.40,WNW,285,1.0,2.0,86,0.00,,,0.00,Wunderground v.1.15,2013-02-09 06:56:00,
2013-02-09 01:57:00,17.5,14.0,30.40,WNW,286,1.0,2.0,86,0.00,,,0.00,Wunderground v.1.15,2013-02-09 06:57:00,
2013-02-09 02:02:00,17.4,14.2,30.40,WNW,285,0.0,0.0,87,0.00,,,0.00,Wunderground v.1.15,2013-02-09 07:02:00,
2013-02-09 02:03:00,17.3,14.1,30.40,WNW,284,0.0,1.0,87,0.00,,,0.00,Wunderground v.1.15,2013-02-09 07:03:00,
2013-02-09 02:04:00,17.3,14.1,30.40,WNW,284,0.0,3.0,87,0.00,,,0.00,Wunderground v.1.15,2013-02-09 07:04:00,
2013-02-09 02:05:00,17.3,14.1,30.40,West,263,1.0,3.0,87,0.00,,,0.00,Wunderground v.1.15,2013-02-09 07:05:00,
2013-02-09 02:09:00,17.2,14.0,30.40,West,263,1.0,3.0,87,0.00,,,0.00,Wunderground v.1.15,2013-02-09 07:09:00,
2013-02-09 02:10:00,17.2,14.0,30.40,West,263,1.0,1.0,87,0.00,,,0.00,Wunderground v.1.15,2013-02-09 07:10:00,
2013-02-09 02:13:00,17.0,13.8,30.40,West,263,1.0,1.0,87,0.00,,,0.00,Wunderground v.1.15,2013-02-09 07:13:00,
2013-02-09 02:15:00,16.9,13.7,30.40,West,263,0.0,1.0,87,0.00,,,0.00,Wunderground v.1.15,2013-02-09 07:15:00,
2013-02-09 02:17:00,16.8,13.6,30.40,West,263,0.0,1.0,87,0.00,,,0.00,Wunderground v.1.15,2013-02-09 07:17:00,
2013-02-09 02:20:00,16.7,13.8,30.40,West,263,1.0,2.0,88,0.00,,,0.00,Wunderground v.1.15,2013-02-09 07:20:00,
2013-02-09 02:25:00,16.5,13.6,30.41,West,265,1.0,3.0,88,0.00,,,0.00,Wunderground v.1.15,2013-02-09 07:25:00,
2013-02-09 02:27:00,16.4,13.5,30.41,West,275,2.0,3.0,88,0.00,,,0.00,Wunderground v.1.15,2013-02-09 07:27:00,
2013-02-09 02:31:00,16.2,13.3,30.41,WNW,291,2.0,2.0,88,0.00,,,0.00,Wunderground v.1.15,2013-02-09 07:31:00,
2013-02-09 02:32:00,16.2,13.3,30.41,NW,325,2.0,2.0,88,0.00,,,0.00,Wunderground v.1.15,2013-02-09 07:32:00,
2013-02-09 02:33:00,16.0,13.1,30.41,NW,306,2.0,2.0,88,0.00,,,0.00,Wunderground v.1.15,2013-02-09 07:33:00,
2013-02-09 02:35:00,15.9,13.0,30.41,WNW,289,2.0,4.0,88,0.00,,,0.00,Wunderground v.1.15,2013-02-09 07:35:00,
2013-02-09 02:36:00,15.8,12.9,30.41,WNW,284,2.0,4.0,88,0.00,,,0.00,Wunderground v.1.15,2013-02-09 07:36:00,
2013-02-09 02:38:00,15.8,12.9,30.41,West,280,2.0,4.0,88,0.00,,,0.00,Wunderground v.1.15,2013-02-09 07:38:00,
2013-02-09 02:43:00,15.6,12.7,30.41,NW,312,2.0,3.0,88,0.00,,,0.00,Wunderground v.1.15,2013-02-09 07:43:00,
2013-02-09 02:44:00,15.5,12.6,30.41,West,277,2.0,3.0,88,0.00,,,0.00,Wunderground v.1.15,2013-02-09 07:44:00,
2013-02-09 02:45:00,15.5,12.6,30.41,West,280,2.0,3.0,88,0.00,,,0.00,Wunderground v.1.15,2013-02-09 07:45:00,
2013-02-09 02:48:00,15.3,12.4,30.41,WNW,284,2.0,3.0,88,0.00,,,0.00,Wunderground v.1.15,2013-02-09 07:48:00,
2013-02-09 02:49:00,15.3,12.4,30.41,West,262,2.0,2.0,88,0.00,,,0.00,Wunderground v.1.15,2013-02-09 07:49:00,
2013-02-09 02:50:00,15.2,12.3,30.41,West,270,2.0,2.0,88,0.00,,,0.00,Wunderground v.1.15,2013-02-09 07:50:00,
2013-02-09 02:51:00,15.2,12.5,30.41,NW,318,2.0,2.0,89,0.00,,,0.00,Wunderground v.1.15,2013-02-09 07:51:00,
2013-02-09 02:53:00,15.2,12.5,30.41,WSW,241,2.0,4.0,89,0.00,,,0.00,Wunderground v.1.15,2013-02-09 07:53:00,
2013-02-09 02:55:00,15.3,12.6,30.41,West,273,2.0,4.0,89,0.00,,,0.00,Wunderground v.1.15,2013-02-09 07:55:00,
2013-02-09 02:57:00,15.4,12.7,30.41,WNW,283,2.0,4.0,89,0.00,,,0.00,Wunderground v.1.15,2013-02-09 07:57:00,
2013-02-09 03:01:00,15.4,12.7,30.41,West,269,2.0,3.0,89,0.00,,,0.00,Wunderground v.1.15,2013-02-09 08:01:00,
2013-02-09 03:03:00,15.5,12.8,30.41,WNW,282,2.0,3.0,89,0.00,,,0.00,Wunderground v.1.15,2013-02-09 08:03:00,
2013-02-09 03:06:00,15.4,12.7,30.41,WNW,302,2.0,3.0,89,0.00,,,0.00,Wunderground v.1.15,2013-02-09 08:06:00,
2013-02-09 03:09:00,15.4,12.7,30.41,WNW,303,2.0,3.0,89,0.00,,,0.00,Wunderground v.1.15,2013-02-09 08:09:00,
2013-02-09 03:11:00,15.4,12.7,30.41,West,268,2.0,3.0,89,0.00,,,0.00,Wunderground v.1.15,2013-02-09 08:11:00,
2013-02-09 03:15:00,15.5,12.8,30.41,NNW,343,2.0,4.0,89,0.00,,,0.00,Wunderground v.1.15,2013-02-09 08:15:00,
2013-02-09 03:16:00,15.5,12.8,30.41,NW,306,2.0,4.0,89,0.00,,,0.00,Wunderground v.1.15,2013-02-09 08:16:00,
2013-02-09 03:17:00,15.5,12.8,30.42,NW,310,2.0,4.0,89,0.00,,,0.00,Wunderground v.1.15,2013-02-09 08:17:00,
2013-02-09 03:19:00,15.5,12.8,30.41,NW,319,2.0,3.0,89,0.00,,,0.00,Wunderground v.1.15,2013-02-09 08:19:00,
2013-02-09 03:23:00,15.4,12.5,30.41,NNW,348,2.0,3.0,88,0.00,,,0.00,Wunderground v.1.15,2013-02-09 08:23:00,
2013-02-09 03:24:00,15.4,12.5,30.41,West,268,2.0,3.0,88,0.00,,,0.00,Wunderground v.1.15,2013-02-09 08:24:00,
2013-02-09 03:25:00,15.5,12.6,30.41,WNW,285,2.0,3.0,88,0.00,,,0.00,Wunderground v.1.15,2013-02-09 08:25:00,
2013-02-09 03:27:00,15.4,12.5,30.41,NNW,330,2.0,3.0,88,0.00,,,0.00,Wunderground v.1.15,2013-02-09 08:27:00,
2013-02-09 03:29:00,15.4,12.5,30.42,NW,318,2.0,2.0,88,0.00,,,0.00,Wunderground v.1.15,2013-02-09 08:29:00,
2013-02-09 03:30:00,15.4,12.5,30.42,WNW,299,2.0,2.0,88,0.00,,,0.00,Wunderground v.1.15,2013-02-09 08:30:00,
2013-02-09 03:31:00,15.4,12.5,30.42,NW,322,2.0,2.0,88,0.00,,,0.00,Wunderground v.1.15,2013-02-09 08:31:00,
2013-02-09 03:33:00,15.4,12.5,30.42,West,277,2.0,3.0,88,0.00,,,0.00,Wunderground v.1.15,2013-02-09 08:33:00,
2013-02-09 03:37:00,15.4,12.5,30.42,NNW,330,2.0,3.0,88,0.00,,,0.00,Wunderground v.1.15,2013-02-09 08:37:00,
2013-02-09 03:38:00,15.4,12.5,30.42,WNW,301,2.0,3.0,88,0.00,,,0.00,Wunderground v.1.15,2013-02-09 08:38:00,
2013-02-09 03:41:00,15.4,12.5,30.42,West,271,2.0,3.0,88,0.00,,,0.00,Wunderground v.1.15,2013-02-09 08:41:00,
2013-02-09 03:43:00,15.4,12.5,30.42,West,272,2.0,3.0,88,0.00,,,0.00,Wunderground v.1.15,2013-02-09 08:43:00,
2013-02-09 03:45:00,15.4,12.5,30.42,WNW,291,1.0,3.0,88,0.00,,,0.00,Wunderground v.1.15,2013-02-09 08:45:00,
2013-02-09 03:46:00,15.3,12.4,30.42,WNW,287,1.0,3.0,88,0.00,,,0.00,Wunderground v.1.15,2013-02-09 08:46:00,
2013-02-09 03:49:00,15.3,12.4,30.42,WNW,289,1.0,3.0,88,0.00,,,0.00,Wunderground v.1.15,2013-02-09 08:49:00,
2013-02-09 03:50:00,15.2,12.3,30.42,WNW,289,1.0,1.0,88,0.00,,,0.00,Wunderground v.1.15,2013-02-09 08:50:00,
2013-02-09 03:54:00,15.1,12.2,30.41,NW,310,1.0,1.0,88,0.00,,,0.00,Wunderground v.1.15,2013-02-09 08:54:00,
2013-02-09 03:55:00,15.0,12.1,30.42,NW,311,1.0,1.0,88,0.00,,,0.00,Wunderground v.1.15,2013-02-09 08:55:00,
2013-02-09 03:56:00,15.0,12.1,30.42,NW,306,1.0,1.0,88,0.00,,,0.00,Wunderground v.1.15,2013-02-09 08:56:00,
2013-02-09 03:59:00,14.9,12.0,30.41,NW,316,1.0,2.0,88,0.00,,,0.00,Wunderground v.1.15,2013-02-09 08:59:00,
2013-02-09 04:00:00,14.9,12.0,30.41,NW,313,1.0,1.0,88,0.00,,,0.00,Wunderground v.1.15,2013-02-09 09:00:00,
2013-02-09 04:03:00,14.8,12.1,30.42,West,270,1.0,2.0,89,0.00,,,0.00,Wunderground v.1.15,2013-02-09 09:03:00,
2013-02-09 04:06:00,14.8,12.1,30.42,NW,314,1.0,3.0,89,0.00,,,0.00,Wunderground v.1.15,2013-02-09 09:06:00,
2013-02-09 04:08:00,14.8,12.1,30.42,NW,322,1.0,3.0,89,0.00,,,0.00,Wunderground v.1.15,2013-02-09 09:08:00,
2013-02-09 04:09:00,14.9,12.2,30.42,WNW,294,1.0,1.0,89,0.00,,,0.00,Wunderground v.1.15,2013-02-09 09:09:00,
2013-02-09 04:11:00,14.8,12.1,30.42,NW,316,1.0,1.0,89,0.00,,,0.00,Wunderground v.1.15,2013-02-09 09:11:00,
2013-02-09 04:15:00,14.7,12.0,30.42,NW,308,1.0,2.0,89,0.00,,,0.00,Wunderground v.1.15,2013-02-09 09:15:00,
2013-02-09 04:16:00,14.7,12.0,30.42,NW,308,1.0,2.0,89,0.00,,,0.00,Wunderground v.1.15,2013-02-09 09:16:00,
2013-02-09 04:19:00,14.6,11.9,30.42,NW,319,1.0,1.0,89,0.00,,,0.00,Wunderground v.1.15,2013-02-09 09:19:00,
2013-02-09 04:20:00,14.5,11.9,30.42,NW,319,1.0,1.0,89,0.00,,,0.00,Wunderground v.1.15,2013-02-09 09:20:00,
2013-02-09 04:23:00,14.5,11.9,30.42,NW,319,0.0,1.0,89,0.00,,,0.00,Wunderground v.1.15,2013-02-09 09:23:00,
2013-02-09 04:25:00,14.4,11.8,30.42,NW,320,0.0,1.0,89,0.00,,,0.00,Wunderground v.1.15,2013-02-09 09:25:00,
2013-02-09 04:26:00,14.4,11.8,30.42,NW,318,0.0,1.0,89,0.00,,,0.00,Wunderground v.1.15,2013-02-09 09:26:00,
2013-02-09 04:31:00,14.3,11.7,30.42,NW,313,0.0,1.0,89,0.00,,,0.00,Wunderground v.1.15,2013-02-09 09:31:00,
2013-02-09 04:33:00,14.2,11.6,30.42,NW,313,0.0,1.0,89,0.00,,,0.00,Wunderground v.1.15,2013-02-09 09:33:00,
2013-02-09 04:34:00,14.2,11.6,30.42,NNW,329,0.0,1.0,89,0.00,,,0.00,Wunderground v.1.15,2013-02-09 09:34:00,
2013-02-09 04:38:00,14.1,11.7,30.43,NNW,329,0.0,1.0,90,0.00,,,0.00,Wunderground v.1.15,2013-02-09 09:38:00,
2013-02-09 04:39:00,14.1,11.7,30.43,NW,304,0.0,0.0,90,0.00,,,0.00,Wunderground v.1.15,2013-02-09 09:39:00,
2013-02-09 04:40:00,14.1,11.7,30.43,NW,304,0.0,0.0,90,0.00,,,0.00,Wunderground v.1.15,2013-02-09 09:40:00,
2013-02-09 04:42:00,14.1,11.7,30.43,NW,304,0.0,0.0,90,0.00,,,0.00,Wunderground v.1.15,2013-02-09 09:42:00,
2013-02-09 04:46:00,14.0,11.6,30.43,NW,304,0.0,0.0,90,0.00,,,0.00,Wunderground v.1.15,2013-02-09 09:46:00,
2013-02-09 04:47:00,13.9,11.5,30.43,WNW,303,0.0,0.0,90,0.00,,,0.00,Wunderground v.1.15,2013-02-09 09:47:00,
2013-02-09 04:48:00,13.9,11.5,30.43,West,276,0.0,1.0,90,0.00,,,0.00,Wunderground v.1.15,2013-02-09 09:48:00,
2013-02-09 04:53:00,13.4,11.0,30.43,West,274,0.0,0.0,90,0.00,,,0.00,Wunderground v.1.15,2013-02-09 09:53:00,
2013-02-09 04:55:00,13.2,10.6,30.43,West,275,0.0,0.0,89,0.00,,,0.00,Wunderground v.1.15,2013-02-09 09:55:00,
2013-02-09 04:56:00,13.1,10.5,30.43,West,275,0.0,0.0,89,0.00,,,0.00,Wunderground v.1.15,2013-02-09 09:56:00,
2013-02-09 05:00:00,12.3,9.7,30.44,West,274,0.0,0.0,89,0.00,,,0.00,Wunderground v.1.15,2013-02-09 10:00:00,
2013-02-09 05:01:00,12.2,9.6,30.44,West,274,0.0,0.0,89,0.00,,,0.00,Wunderground v.1.15,2013-02-09 10:01:00,
2013-02-09 05:05:00,12.2,10.1,30.44,West,275,0.0,0.0,91,0.00,,,0.00,Wunderground v.1.15,2013-02-09 10:05:00,
2013-02-09 05:06:00,12.3,10.2,30.44,West,274,0.0,0.0,91,0.00,,,0.00,Wunderground v.1.15,2013-02-09 10:06:00,
2013-02-09 05:08:00,12.3,10.4,30.44,West,274,0.0,0.0,92,0.00,,,0.00,Wunderground v.1.15,2013-02-09 10:08:00,
2013-02-09 05:10:00,12.4,10.5,30.44,West,274,0.0,1.0,92,0.00,,,0.00,Wunderground v.1.15,2013-02-09 10:10:00,
2013-02-09 05:11:00,12.4,10.5,30.45,WSW,257,0.0,2.0,92,0.00,,,0.00,Wunderground v.1.15,2013-02-09 10:11:00,
2013-02-09 05:14:00,12.3,10.2,30.45,WSW,258,0.0,2.0,91,0.00,,,0.00,Wunderground v.1.15,2013-02-09 10:14:00,
2013-02-09 05:15:00,12.3,10.2,30.45,WSW,258,0.0,2.0,91,0.00,,,0.00,Wunderground v.1.15,2013-02-09 10:15:00,
2013-02-09 05:16:00,12.3,10.2,30.45,West,275,1.0,3.0,91,0.00,,,0.00,Wunderground v.1.15,2013-02-09 10:16:00,
2013-02-09 05:18:00,12.4,10.3,30.45,WSW,258,1.0,3.0,91,0.00,,,0.00,Wunderground v.1.15,2013-02-09 10:18:00,
2013-02-09 05:20:00,12.4,10.3,30.45,WSW,257,2.0,2.0,91,0.00,,,0.00,Wunderground v.1.15,2013-02-09 10:20:00,
2013-02-09 05:23:00,12.4,10.3,30.45,West,261,2.0,2.0,91,0.00,,,0.00,Wunderground v.1.15,2013-02-09 10:23:00,
2013-02-09 05:24:00,12.4,10.3,30.45,West,260,2.0,2.0,91,0.00,,,0.00,Wunderground v.1.15,2013-02-09 10:24:00,
2013-02-09 05:25:00,12.3,10.2,30.45,West,260,2.0,2.0,91,0.00,,,0.00,Wunderground v.1.15,2013-02-09 10:25:00,
2013-02-09 05:27:00,12.3,10.2,30.45,West,261,1.0,2.0,91,0.00,,,0.00,Wunderground v.1.15,2013-02-09 10:27:00,
2013-02-09 05:28:00,12.2,10.1,30.45,West,261,1.0,2.0,91,0.00,,,0.00,Wunderground v.1.15,2013-02-09 10:28:00,
2013-02-09 05:31:00,12.3,10.2,30.45,West,266,1.0,1.0,91,0.00,,,0.00,Wunderground v.1.15,2013-02-09 10:31:00,
2013-02-09 05:33:00,12.3,10.2,30.45,West,266,1.0,1.0,91,0.00,,,0.00,Wunderground v.1.15,2013-02-09 10:33:00,
2013-02-09 05:36:00,12.2,10.1,30.45,West,265,0.0,1.0,91,0.00,,,0.00,Wunderground v.1.15,2013-02-09 10:36:00,
2013-02-09 05:37:00,12.2,10.1,30.45,West,266,0.0,1.0,91,0.00,,,0.00,Wunderground v.1.15,2013-02-09 10:37:00,
2013-02-09 05:38:00,12.2,10.1,30.45,West,266,0.0,1.0,91,0.00,,,0.00,Wunderground v.1.15,2013-02-09 10:38:00,
2013-02-09 05:39:00,12.2,10.1,30.45,West,265,0.0,0.0,91,0.00,,,0.00,Wunderground v.1.15,2013-02-09 10:39:00,
2013-02-09 05:43:00,12.2,10.1,30.45,West,266,0.0,0.0,91,0.00,,,0.00,Wunderground v.1.15,2013-02-09 10:43:00,
2013-02-09 05:44:00,12.1,10.0,30.45,West,266,0.0,0.0,91,0.00,,,0.00,Wunderground v.1.15,2013-02-09 10:44:00,
2013-02-09 05:46:00,12.1,10.0,30.45,West,266,0.0,0.0,91,0.00,,,0.00,Wunderground v.1.15,2013-02-09 10:46:00,
2013-02-09 05:47:00,12.1,10.0,30.45,West,266,0.0,0.0,91,0.00,,,0.00,Wunderground v.1.15,2013-02-09 10:47:00,
2013-02-09 05:49:00,12.1,10.0,30.45,West,266,0.0,0.0,91,0.00,,,0.00,Wunderground v.1.15,2013-02-09 10:49:00,
2013-02-09 05:52:00,12.0,9.9,30.45,West,265,0.0,0.0,91,0.00,,,0.00,Wunderground v.1.15,2013-02-09 10:52:00,
2013-02-09 05:54:00,11.9,9.8,30.45,West,266,0.0,0.0,91,0.00,,,0.00,Wunderground v.1.15,2013-02-09 10:54:00,
2013-02-09 05:56:00,11.9,9.8,30.45,West,266,0.0,0.0,91,0.00,,,0.00,Wunderground v.1.15,2013-02-09 10:56:00,
2013-02-09 05:57:00,11.9,9.8,30.45,West,266,0.0,0.0,91,0.00,,,0.00,Wunderground v.1.15,2013-02-09 10:57:00,
2013-02-09 05:59:00,11.9,9.8,30.45,WNW,291,0.0,0.0,91,0.00,,,0.00,Wunderground v.1.15,2013-02-09 10:59:00,
2013-02-09 06:03:00,11.9,9.8,30.44,WNW,291,0.0,0.0,91,0.00,,,0.00,Wunderground v.1.15,2013-02-09 11:03:00,
2013-02-09 06:04:00,11.9,9.8,30.44,WNW,291,0.0,0.0,91,0.00,,,0.00,Wunderground v.1.15,2013-02-09 11:04:00,
2013-02-09 06:05:00,11.9,9.8,30.44,WNW,291,0.0,0.0,91,0.00,,,0.00,Wunderground v.1.15,2013-02-09 11:05:00,
2013-02-09 06:09:00,11.7,9.3,30.44,North,353,0.0,0.0,90,0.00,,,0.00,Wunderground v.1.15,2013-02-09 11:09:00,
2013-02-09 06:10:00,11.6,9.2,30.44,North,3,0.0,1.0,90,0.00,,,0.00,Wunderground v.1.15,2013-02-09 11:10:00,
2013-02-09 06:11:00,11.5,9.1,30.44,North,3,0.0,1.0,90,0.00,,,0.00,Wunderground v.1.15,2013-02-09 11:11:00,
2013-02-09 15:53:00,32.5,16.4,30.40,SE,142,6.0,8.0,51,0.00,,,0.03,Wunderground v.1.15,2013-02-09 20:53:00,
2013-02-09 15:55:00,32.7,16.5,30.40,South,185,6.0,8.0,51,0.00,,,0.03,Wunderground v.1.15,2013-02-09 20:55:00,
2013-02-09 15:57:00,32.8,16.6,30.39,East,97,6.0,8.0,51,0.00,,,0.03,Wunderground v.1.15,2013-02-09 20:57:00,
2013-02-09 15:58:00,32.7,16.5,30.39,South,171,6.0,8.0,51,0.00,,,0.03,Wunderground v.1.15,2013-02-09 20:58:00,
2013-02-09 15:59:00,32.6,16.4,30.39,ESE,116,6.0,8.0,51,0.00,,,0.03,Wunderground v.1.15,2013-02-09 20:59:00,
2013-02-09 16:01:00,32.4,16.7,30.39,SSE,156,6.0,7.0,52,0.00,,,0.03,Wunderground v.1.15,2013-02-09 21:01:00,
2013-02-09 16:04:00,32.3,16.2,30.39,SE,130,6.0,8.0,51,0.00,,,0.03,Wunderground v.1.15,2013-02-09 21:04:00,
2013-02-09 16:07:00,32.4,16.3,30.39,SSE,161,6.0,9.0,51,0.00,,,0.03,Wunderground v.1.15,2013-02-09 21:07:00,
2013-02-09 16:11:00,32.6,16.0,30.39,SSE,156,7.0,8.0,50,0.00,,,0.03,Wunderground v.1.15,2013-02-09 21:11:00,
2013-02-09 16:12:00,32.6,16.0,30.39,SE,135,7.0,8.0,50,0.00,,,0.03,Wunderground v.1.15,2013-02-09 21:12:00,
2013-02-09 16:14:00,32.7,16.1,30.39,South,169,7.0,8.0,50,0.00,,,0.03,Wunderground v.1.15,2013-02-09 21:14:00,
2013-02-09 16:18:00,32.6,16.4,30.39,SSW,209,6.0,8.0,51,0.00,,,0.03,Wunderground v.1.15,2013-02-09 21:18:00,
2013-02-09 16:19:00,32.5,16.4,30.39,SE,143,6.0,8.0,51,0.00,,,0.03,Wunderground v.1.15,2013-02-09 21:19:00,
2013-02-09 16:22:00,32.5,15.9,30.39,SE,135,6.0,8.0,50,0.00,,,0.03,Wunderground v.1.15,2013-02-09 21:22:00,
2013-02-09 16:23:00,32.5,16.4,30.39,SSE,147,6.0,8.0,51,0.00,,,0.03,Wunderground v.1.15,2013-02-09 21:23:00,
2013-02-09 16:25:00,32.4,16.7,30.39,ESE,105,6.0,8.0,52,0.00,,,0.03,Wunderground v.1.15,2013-02-09 21:25:00,
2013-02-09 16:27:00,32.0,16.3,30.39,South,186,6.0,8.0,52,0.00,,,0.03,Wunderground v.1.15,2013-02-09 21:27:00,
2013-02-09 16:28:00,31.9,15.8,30.39,South,190,6.0,8.0,51,0.00,,,0.03,Wunderground v.1.15,2013-02-09 21:28:00,
2013-02-09 16:30:00,32.0,16.3,30.39,SSE,154,6.0,11.0,52,0.00,,,0.03,Wunderground v.1.15,2013-02-09 21:30:00,
2013-02-09 16:32:00,32.3,16.2,30.39,SE,138,7.0,11.0,51,0.00,,,0.03,Wunderground v.1.15,2013-02-09 21:32:00,
2013-02-09 16:34:00,32.2,16.1,30.39,SSW,192,7.0,11.0,51,0.00,,,0.03,Wunderground v.1.15,2013-02-09 21:34:00,
2013-02-09 16:36:00,32.1,16.4,30.39,South,189,7.0,11.0,52,0.00,,,0.03,Wunderground v.1.15,2013-02-09 21:36:00,
2013-02-09 16:37:00,31.9,16.2,30.39,South,182,7.0,11.0,52,0.00,,,0.03,Wunderground v.1.15,2013-02-09 21:37:00,
2013-02-09 16:40:00,31.6,16.0,30.39,SSW,204,7.0,7.0,52,0.00,,,0.03,Wunderground v.1.15,2013-02-09 21:40:00,
2013-02-09 16:42:00,31.5,16.3,30.39,South,190,7.0,7.0,53,0.00,,,0.03,Wunderground v.1.15,2013-02-09 21:42:00,
2013-02-09 16:43:00,31.4,16.7,30.39,SSW,202,7.0,7.0,54,0.00,,,0.03,Wunderground v.1.15,2013-02-09 21:43:00,
2013-02-09 16:45:00,31.3,16.6,30.39,SSW,209,6.0,7.0,54,0.00,,,0.03,Wunderground v.1.15,2013-02-09 21:45:00,
2013-02-09 16:47:00,31.3,16.6,30.39,SSW,203,6.0,7.0,54,0.00,,,0.03,Wunderground v.1.15,2013-02-09 21:47:00,
2013-02-09 16:49:00,31.2,16.9,30.39,SSE,165,6.0,8.0,55,0.00,,,0.03,Wunderground v.1.15,2013-02-09 21:49:00,
2013-02-09 16:50:00,31.2,16.9,30.39,South,175,6.0,6.0,55,0.00,,,0.03,Wunderground v.1.15,2013-02-09 21:50:00,
2013-02-09 16:51:00,31.3,17.0,30.38,SSW,203,6.0,8.0,55,0.00,,,0.03,Wunderground v.1.15,2013-02-09 21:51:00,
2013-02-09 16:52:00,31.3,17.4,30.38,SSE,153,6.0,8.0,56,0.00,,,0.03,Wunderground v.1.15,2013-02-09 21:52:00,
2013-02-09 16:56:00,31.6,17.7,30.38,South,173,7.0,8.0,56,0.00,,,0.03,Wunderground v.1.15,2013-02-09 21:56:00,
2013-02-09 16:57:00,31.6,17.7,30.38,SE,133,7.0,8.0,56,0.00,,,0.03,Wunderground v.1.15,2013-02-09 21:57:00,
2013-02-09 16:58:00,31.6,18.1,30.38,SE,125,7.0,8.0,57,0.00,,,0.03,Wunderground v.1.15,2013-02-09 21:58:00,
2013-02-09 17:02:00,31.5,18.0,30.38,SE,139,7.0,8.0,57,0.00,,,0.03,Wunderground v.1.15,2013-02-09 22:02:00,
2013-02-09 17:03:00,31.5,18.0,30.38,SE,145,7.0,10.0,57,0.00,,,0.03,Wunderground v.1.15,2013-02-09 22:03:00,
2013-02-09 17:04:00,31.5,18.0,30.38,SE,139,7.0,10.0,57,0.00,,,0.03,Wunderground v.1.15,2013-02-09 22:04:00,
2013-02-09 17:05:00,31.6,18.1,30.38,SE,135,7.0,10.0,57,0.00,,,0.03,Wunderground v.1.15,2013-02-09 22:05:00,
2013-02-09 17:09:00,31.4,17.9,30.38,SSE,149,7.0,10.0,57,0.00,,,0.03,Wunderground v.1.15,2013-02-09 22:09:00,
2013-02-09 17:11:00,31.4,17.9,30.38,SE,135,7.0,9.0,57,0.00,,,0.03,Wunderground v.1.15,2013-02-09 22:11:00,
2013-02-09 17:13:00,31.4,17.9,30.38,SE,128,8.0,9.0,57,0.00,,,0.03,Wunderground v.1.15,2013-02-09 22:13:00,
2013-02-09 17:14:00,31.4,17.9,30.38,SSE,147,8.0,9.0,57,0.00,,,0.03,Wunderground v.1.15,2013-02-09 22:14:00,
2013-02-09 17:18:00,31.1,17.6,30.38,SSW,196,7.0,9.0,57,0.00,,,0.03,Wunderground v.1.15,2013-02-09 22:18:00,
2013-02-09 17:19:00,30.9,17.4,30.38,SSW,196,7.0,9.0,57,0.00,,,0.03,Wunderground v.1.15,2013-02-09 22:19:00,
2013-02-09 17:20:00,30.8,17.3,30.38,South,190,6.0,6.0,57,0.00,,,0.03,Wunderground v.1.15,2013-02-09 22:20:00,
2013-02-09 17:22:00,30.6,17.6,30.38,South,189,6.0,7.0,58,0.00,,,0.03,Wunderground v.1.15,2013-02-09 22:22:00,
2013-02-09 17:23:00,30.6,17.6,30.38,SE,142,6.0,8.0,58,0.00,,,0.03,Wunderground v.1.15,2013-02-09 22:23:00,
2013-02-09 17:24:00,30.6,18.0,30.38,SE,132,6.0,8.0,59,0.00,,,0.03,Wunderground v.1.15,2013-02-09 22:24:00,
2013-02-09 17:26:00,30.7,18.1,30.38,SE,129,6.0,8.0,59,0.00,,,0.03,Wunderground v.1.15,2013-02-09 22:26:00,
2013-02-09 17:28:00,30.5,17.9,30.38,SSE,157,7.0,8.0,59,0.00,,,0.03,Wunderground v.1.15,2013-02-09 22:28:00,
2013-02-09 17:30:00,30.5,17.9,30.38,SE,145,7.0,7.0,59,0.00,,,0.03,Wunderground v.1.15,2013-02-09 22:30:00,
2013-02-09 17:31:00,30.5,17.9,30.38,SSE,154,7.0,7.0,59,0.00,,,0.03,Wunderground v.1.15,2013-02-09 22:31:00,
2013-02-09 17:32:00,30.5,17.9,30.38,SSE,154,7.0,7.0,59,0.00,,,0.03,Wunderground v.1.15,2013-02-09 22:32:00,
2013-02-09 17:33:00,30.4,17.8,30.38,South,187,7.0,8.0,59,0.00,,,0.03,Wunderground v.1.15,2013-02-09 22:33:00,
2013-02-09 17:37:00,29.8,18.0,30.38,SSE,155,7.0,8.0,61,0.00,,,0.03,Wunderground v.1.15,2013-02-09 22:37:00,
2013-02-09 17:38:00,29.6,17.8,30.38,SSW,204,7.0,8.0,61,0.00,,,0.03,Wunderground v.1.15,2013-02-09 22:38:00,
2013-02-09 17:40:00,29.4,17.6,30.38,SSE,165,7.0,7.0,61,0.00,,,0.03,Wunderground v.1.15,2013-02-09 22:40:00,
2013-02-09 17:42:00,29.2,17.8,30.39,South,182,7.0,7.0,62,0.00,,,0.03,Wunderground v.1.15,2013-02-09 22:42:00,
2013-02-09 17:45:00,28.9,17.9,30.39,South,180,7.0,7.0,63,0.00,,,0.03,Wunderground v.1.15,2013-02-09 22:45:00,
2013-02-09 17:46:00,28.8,17.8,30.39,SSE,154,7.0,9.0,63,0.00,,,0.03,Wunderground v.1.15,2013-02-09 22:46:00,
2013-02-09 17:47:00,28.8,17.8,30.39,South,173,7.0,9.0,63,0.00,,,0.03,Wunderground v.1.15,2013-02-09 22:47:00,
2013-02-09 17:48:00,28.7,18.1,30.38,South,175,7.0,9.0,64,0.00,,,0.03,Wunderground v.1.15,2013-02-09 22:48:00,
2013-02-09 17:50:00,28.5,17.9,30.38,SSE,153,7.0,7.0,64,0.00,,,0.03,Wunderground v.1.15,2013-02-09 22:50:00,
2013-02-09 17:53:00,28.2,17.6,30.38,SSE,165,7.0,9.0,64,0.00,,,0.03,Wunderground v.1.15,2013-02-09 22:53:00,
2013-02-09 17:54:00,28.1,17.8,30.38,SE,136,7.0,9.0,65,0.00,,,0.03,Wunderground v.1.15,2013-02-09 22:54:00,
2013-02-09 17:55:00,28.0,17.7,30.38,SE,138,7.0,9.0,65,0.00,,,0.03,Wunderground v.1.15,2013-02-09 22:55:00,
2013-02-09 17:58:00,27.7,17.8,30.38,SSE,154,7.0,9.0,66,0.00,,,0.03,Wunderground v.1.15,2013-02-09 22:58:00,
2013-02-09 17:59:00,27.7,17.8,30.38,SSE,166,7.0,9.0,66,0.00,,,0.03,Wunderground v.1.15,2013-02-09 22:59:00,
2013-02-09 18:00:00,27.6,17.7,30.38,SSE,147,7.0,9.0,66,0.00,,,0.03,Wunderground v.1.15,2013-02-09 23:00:00,
2013-02-09 18:02:00,27.5,18.0,30.38,SE,140,7.0,9.0,67,0.00,,,0.03,Wunderground v.1.15,2013-02-09 23:02:00,
2013-02-09 18:04:00,27.4,17.9,30.39,SE,128,7.0,9.0,67,0.00,,,0.03,Wunderground v.1.15,2013-02-09 23:04:00,
2013-02-09 18:05:00,27.4,17.9,30.39,SE,132,7.0,9.0,67,0.00,,,0.03,Wunderground v.1.15,2013-02-09 23:05:00,
2013-02-09 18:07:00,27.4,18.2,30.38,ESE,112,7.0,9.0,68,0.00,,,0.03,Wunderground v.1.15,2013-02-09 23:07:00,
2013-02-09 18:09:00,27.3,18.1,30.38,SSE,147,6.0,9.0,68,0.00,,,0.03,Wunderground v.1.15,2013-02-09 23:09:00,
2013-02-09 18:10:00,27.2,18.0,30.38,SE,137,6.0,6.0,68,0.00,,,0.03,Wunderground v.1.15,2013-02-09 23:10:00,
2013-02-09 18:11:00,27.2,18.0,30.38,SE,133,6.0,6.0,68,0.00,,,0.03,Wunderground v.1.15,2013-02-09 23:11:00,
2013-02-09 18:12:00,27.1,17.9,30.39,SE,125,6.0,6.0,68,0.00,,,0.03,Wunderground v.1.15,2013-02-09 23:12:00,
2013-02-09 18:15:00,27.0,18.2,30.38,SE,143,5.0,6.0,69,0.00,,,0.03,Wunderground v.1.15,2013-02-09 23:15:00,
2013-02-09 18:17:00,26.9,18.1,30.38,SE,145,5.0,6.0,69,0.00,,,0.03,Wunderground v.1.15,2013-02-09 23:17:00,
2013-02-09 18:18:00,26.8,18.0,30.38,SE,140,5.0,7.0,69,0.00,,,0.03,Wunderground v.1.15,2013-02-09 23:18:00,
2013-02-09 18:21:00,26.7,18.2,30.39,SSE,168,5.0,6.0,70,0.00,,,0.03,Wunderground v.1.15,2013-02-09 23:21:00,
2013-02-09 18:22:00,26.6,18.1,30.39,SE,138,5.0,6.0,70,0.00,,,0.03,Wunderground v.1.15,2013-02-09 23:22:00,
2013-02-09 18:23:00,26.6,18.1,30.39,SE,145,5.0,6.0,70,0.00,,,0.03,Wunderground v.1.15,2013-02-09 23:23:00,
2013-02-09 18:26:00,26.5,18.0,30.39,SE,139,5.0,6.0,70,0.00,,,0.03,Wunderground v.1.15,2013-02-09 23:26:00,
2013-02-09 18:28:00,26.4,18.3,30.39,SE,140,6.0,6.0,71,0.00,,,0.03,Wunderground v.1.15,2013-02-09 23:28:00,
2013-02-09 18:29:00,26.3,18.2,30.39,SE,135,5.0,7.0,71,0.00,,,0.03,Wunderground v.1.15,2013-02-09 23:29:00,
2013-02-09 18:32:00,26.2,18.1,30.39,SE,139,5.0,6.0,71,0.00,,,0.03,Wunderground v.1.15,2013-02-09 23:32:00,
2013-02-09 18:34:00,26.1,18.3,30.39,SE,132,5.0,6.0,72,0.00,,,0.03,Wunderground v.1.15,2013-02-09 23:34:00,
2013-02-09 18:36:00,26.0,18.2,30.39,SE,132,5.0,6.0,72,0.00,,,0.03,Wunderground v.1.15,2013-02-09 23:36:00,
2013-02-09 18:38:00,25.9,18.4,30.39,SE,135,5.0,6.0,73,0.00,,,0.03,Wunderground v.1.15,2013-02-09 23:38:00,
2013-02-09 18:39:00,25.9,18.4,30.39,SE,143,5.0,7.0,73,0.00,,,0.03,Wunderground v.1.15,2013-02-09 23:39:00,
2013-02-09 18:42:00,25.9,18.4,30.39,SE,146,5.0,7.0,73,0.00,,,0.03,Wunderground v.1.15,2013-02-09 23:42:00,
2013-02-09 18:43:00,25.9,18.4,30.39,SE,140,5.0,7.0,73,0.00,,,0.03,Wunderground v.1.15,2013-02-09 23:43:00,
2013-02-09 18:44:00,25.8,18.3,30.39,SSE,147,5.0,7.0,73,0.00,,,0.03,Wunderground v.1.15,2013-02-09 23:44:00,
2013-02-09 18:45:00,25.8,18.3,30.39,SE,143,5.0,7.0,73,0.00,,,0.03,Wunderground v.1.15,2013-02-09 23:45:00,
2013-02-09 18:47:00,25.7,18.6,30.39,East,86,5.0,7.0,74,0.00,,,0.03,Wunderground v.1.15,2013-02-09 23:47:00,
2013-02-09 18:48:00,25.7,18.6,30.39,SE,144,5.0,7.0,74,0.00,,,0.03,Wunderground v.1.15,2013-02-09 23:48:00,
2013-02-09 18:51:00,25.7,18.6,30.39,SE,134,5.0,5.0,74,0.00,,,0.03,Wunderground v.1.15,2013-02-09 23:51:00,
2013-02-09 18:52:00,25.7,18.6,30.39,ESE,114,5.0,5.0,74,0.00,,,0.03,Wunderground v.1.15,2013-02-09 23:52:00,
2013-02-09 18:54:00,25.7,18.9,30.39,South,173,5.0,5.0,75,0.00,,,0.03,Wunderground v.1.15,2013-02-09 23:54:00,
2013-02-09 18:56:00,25.7,18.9,30.39,ESE,122,5.0,5.0,75,0.00,,,0.03,Wunderground v.1.15,2013-02-09 23:56:00,
2013-02-09 18:57:00,25.7,18.9,30.39,SSE,150,5.0,5.0,75,0.00,,,0.03,Wunderground v.1.15,2013-02-09 23:57:00,
2013-02-09 18:58:00,25.7,18.9,30.39,ESE,116,5.0,5.0,75,0.00,,,0.03,Wunderground v.1.15,2013-02-09 23:58:00,
2013-02-09 18:59:00,25.7,18.9,30.39,East,94,5.0,5.0,75,0.00,,,0.03,Wunderground v.1.15,2013-02-09 23:59:00,
2013-02-09 19:03:00,25.6,18.8,30.39,East,85,4.0,5.0,75,0.00,,,0.03,Wunderground v.1.15,2013-02-10 00:03:00,
2013-02-09 19:04:00,25.6,18.8,30.39,SE,134,4.0,5.0,75,0.00,,,0.03,Wunderground v.1.15,2013-02-10 00:04:00,
2013-02-09 19:05:00,25.6,19.1,30.39,ESE,121,4.0,5.0,76,0.00,,,0.03,Wunderground v.1.15,2013-02-10 00:05:00,
2013-02-09 19:09:00,25.6,19.1,30.39,SE,143,4.0,6.0,76,0.00,,,0.03,Wunderground v.1.15,2013-02-10 00:09:00,
2013-02-09 19:12:00,25.5,19.3,30.39,ENE,78,4.0,6.0,77,0.00,,,0.03,Wunderground v.1.15,2013-02-10 00:12:00,
2013-02-09 19:13:00,25.5,19.3,30.39,ESE,121,4.0,6.0,77,0.00,,,0.03,Wunderground v.1.15,2013-02-10 00:13:00,
2013-02-09 19:14:00,25.5,19.3,30.38,ESE,116,4.0,6.0,77,0.00,,,0.03,Wunderground v.1.15,2013-02-10 00:14:00,
2013-02-09 19:17:00,25.3,19.1,30.38,SE,125,4.0,6.0,77,0.00,,,0.03,Wunderground v.1.15,2013-02-10 00:17:00,
2013-02-09 19:18:00,25.3,19.4,30.38,SE,138,4.0,6.0,78,0.00,,,0.03,Wunderground v.1.15,2013-02-10 00:18:00,
2013-02-09 19:20:00,25.2,19.3,30.38,SSE,147,4.0,4.0,78,0.00,,,0.03,Wunderground v.1.15,2013-02-10 00:20:00,
2013-02-09 19:22:00,25.2,19.3,30.38,SSE,157,4.0,4.0,78,0.00,,,0.03,Wunderground v.1.15,2013-02-10 00:22:00,
2013-02-09 19:27:00,25.1,19.5,30.38,East,93,4.0,5.0,79,0.00,,,0.03,Wunderground v.1.15,2013-02-10 00:27:00,
2013-02-09 19:29:00,25.2,19.6,30.38,SE,133,4.0,5.0,79,0.00,,,0.03,Wunderground v.1.15,2013-02-10 00:29:00,
2013-02-09 19:32:00,25.1,19.5,30.37,SE,135,4.0,4.0,79,0.00,,,0.03,Wunderground v.1.15,2013-02-10 00:32:00,
2013-02-09 19:34:00,25.1,19.5,30.38,SSE,147,3.0,4.0,79,0.00,,,0.03,Wunderground v.1.15,2013-02-10 00:34:00,
2013-02-09 19:35:00,25.1,19.5,30.37,ESE,115,3.0,4.0,79,0.00,,,0.03,Wunderground v.1.15,2013-02-10 00:35:00,
2013-02-09 19:38:00,25.1,19.8,30.38,East,91,3.0,4.0,80,0.00,,,0.03,Wunderground v.1.15,2013-02-10 00:38:00,
2013-02-09 19:39:00,25.1,19.8,30.37,ESE,102,3.0,4.0,80,0.00,,,0.03,Wunderground v.1.15,2013-02-10 00:39:00,
2013-02-09 19:40:00,25.1,19.8,30.37,SE,128,3.0,3.0,80,0.00,,,0.03,Wunderground v.1.15,2013-02-10 00:40:00,
2013-02-09 19:41:00,25.0,19.7,30.37,SE,132,3.0,3.0,80,0.00,,,0.03,Wunderground v.1.15,2013-02-10 00:41:00,
2013-02-09 19:43:00,25.0,19.7,30.37,ESE,102,3.0,5.0,80,0.00,,,0.03,Wunderground v.1.15,2013-02-10 00:43:00,
2013-02-09 19:45:00,25.0,19.7,30.37,ESE,111,3.0,5.0,80,0.00,,,0.03,Wunderground v.1.15,2013-02-10 00:45:00,
2013-02-09 19:46:00,25.0,19.7,30.38,ESE,105,3.0,5.0,80,0.00,,,0.03,Wunderground v.1.15,2013-02-10 00:46:00,
2013-02-09 19:48:00,25.0,19.7,30.38,ESE,112,3.0,5.0,80,0.00,,,0.03,Wunderground v.1.15,2013-02-10 00:48:00,
2013-02-09 19:51:00,24.9,19.6,30.38,ESE,122,3.0,3.0,80,0.00,,,0.03,Wunderground v.1.15,2013-02-10 00:51:00,
2013-02-09 19:52:00,24.9,19.6,30.38,SE,135,3.0,3.0,80,0.00,,,0.03,Wunderground v.1.15,2013-02-10 00:52:00,
2013-02-09 19:53:00,24.9,19.6,30.38,ESE,114,3.0,4.0,80,0.00,,,0.03,Wunderground v.1.15,2013-02-10 00:53:00,
2013-02-09 19:55:00,24.8,19.5,30.38,SE,132,3.0,5.0,80,0.00,,,0.03,Wunderground v.1.15,2013-02-10 00:55:00,
2013-02-09 19:56:00,24.8,19.8,30.38,East,85,3.0,5.0,81,0.00,,,0.03,Wunderground v.1.15,2013-02-10 00:56:00,
2013-02-09 19:57:00,24.8,19.8,30.38,SE,127,4.0,5.0,81,0.00,,,0.03,Wunderground v.1.15,2013-02-10 00:57:00,
2013-02-09 19:59:00,24.7,19.7,30.38,ESE,121,3.0,5.0,81,0.00,,,0.03,Wunderground v.1.15,2013-02-10 00:59:00,
2013-02-09 21:21:00,23.1,19.5,30.36,ESE,107,4.0,4.0,86,0.00,,,0.03,Wunderground v.1.15,2013-02-10 02:21:00,
2013-02-09 21:23:00,23.1,19.8,30.36,ESE,109,4.0,5.0,87,0.00,,,0.03,Wunderground v.1.15,2013-02-10 02:23:00,
2013-02-09 21:24:00,23.1,19.8,30.36,ENE,73,4.0,5.0,87,0.00,,,0.03,Wunderground v.1.15,2013-02-10 02:24:00,
2013-02-09 21:26:00,23.1,19.8,30.36,East,92,4.0,5.0,87,0.00,,,0.03,Wunderground v.1.15,2013-02-10 02:26:00,
2013-02-09 21:29:00,23.0,19.7,30.36,ESE,114,4.0,5.0,87,0.00,,,0.03,Wunderground v.1.15,2013-02-10 02:29:00,
2013-02-09 21:30:00,23.0,19.7,30.36,SE,135,4.0,5.0,87,0.00,,,0.03,Wunderground v.1.15,2013-02-10 02:30:00,
2013-02-09 21:32:00,22.9,19.6,30.36,ENE,63,3.0,4.0,87,0.00,,,0.03,Wunderground v.1.15,2013-02-10 02:32:00,
2013-02-09 21:33:00,23.0,19.7,30.36,East,100,3.0,4.0,87,0.00,,,0.03,Wunderground v.1.15,2013-02-10 02:33:00,
2013-02-09 21:35:00,22.9,19.6,30.36,ENE,59,3.0,4.0,87,0.00,,,0.03,Wunderground v.1.15,2013-02-10 02:35:00,
2013-02-09 21:37:00,22.9,19.6,30.36,East,98,3.0,5.0,87,0.00,,,0.03,Wunderground v.1.15,2013-02-10 02:37:00,
2013-02-09 21:39:00,22.9,19.6,30.36,East,87,3.0,5.0,87,0.00,,,0.03,Wunderground v.1.15,2013-02-10 02:39:00,
2013-02-09 21:40:00,22.8,19.5,30.36,East,89,3.0,4.0,87,0.00,,,0.03,Wunderground v.1.15,2013-02-10 02:40:00,
2013-02-09 21:44:00,22.8,19.8,30.36,ESE,111,3.0,4.0,88,0.00,,,0.03,Wunderground v.1.15,2013-02-10 02:44:00,
2013-02-09 21:45:00,22.7,19.7,30.36,East,87,3.0,4.0,88,0.00,,,0.03,Wunderground v.1.15,2013-02-10 02:45:00,
2013-02-09 21:48:00,22.7,19.7,30.36,ENE,78,3.0,4.0,88,0.00,,,0.03,Wunderground v.1.15,2013-02-10 02:48:00,
2013-02-09 21:51:00,22.6,19.6,30.36,SE,134,3.0,3.0,88,0.00,,,0.03,Wunderground v.1.15,2013-02-10 02:51:00,
2013-02-09 21:52:00,22.6,19.6,30.36,East,95,3.0,4.0,88,0.00,,,0.03,Wunderground v.1.15,2013-02-10 02:52:00,
2013-02-09 21:54:00,22.6,19.6,30.36,ESE,105,3.0,4.0,88,0.00,,,0.03,Wunderground v.1.15,2013-02-10 02:54:00,
2013-02-09 21:56:00,22.5,19.5,30.36,ESE,105,3.0,5.0,88,0.00,,,0.03,Wunderground v.1.15,2013-02-10 02:56:00,
2013-02-09 21:57:00,22.5,19.5,30.36,ESE,104,4.0,5.0,88,0.00,,,0.03,Wunderground v.1.15,2013-02-10 02:57:00,
2013-02-09 22:01:00,22.5,19.5,30.35,East,98,4.0,5.0,88,0.00,,,0.03,Wunderground v.1.15,2013-02-10 03:01:00,
2013-02-09 22:02:00,22.5,19.5,30.35,East,95,4.0,5.0,88,0.00,,,0.03,Wunderground v.1.15,2013-02-10 03:02:00,
2013-02-09 22:04:00,22.5,19.5,30.35,ESE,105,4.0,5.0,88,0.00,,,0.03,Wunderground v.1.15,2013-02-10 03:04:00,
2013-02-09 22:08:00,22.4,19.4,30.35,ESE,122,4.0,5.0,88,0.00,,,0.03,Wunderground v.1.15,2013-02-10 03:08:00,
2013-02-09 22:10:00,22.4,19.4,30.35,East,96,4.0,4.0,88,0.00,,,0.03,Wunderground v.1.15,2013-02-10 03:10:00,
2013-02-09 22:11:00,22.4,19.4,30.35,ESE,107,4.0,4.0,88,0.00,,,0.03,Wunderground v.1.15,2013-02-10 03:11:00,
2013-02-09 22:12:00,22.4,19.4,30.35,ESE,114,4.0,4.0,88,0.00,,,0.03,Wunderground v.1.15,2013-02-10 03:12:00,
2013-02-09 22:15:00,22.3,19.3,30.36,ESE,108,4.0,5.0,88,0.00,,,0.03,Wunderground v.1.15,2013-02-10 03:15:00,
2013-02-09 22:16:00,22.3,19.3,30.36,ESE,122,4.0,5.0,88,0.00,,,0.03,Wunderground v.1.15,2013-02-10 03:16:00,
2013-02-09 22:19:00,22.3,19.3,30.35,East,100,4.0,5.0,88,0.00,,,0.03,Wunderground v.1.15,2013-02-10 03:19:00,
2013-02-09 22:20:00,22.3,19.3,30.35,East,84,4.0,4.0,88,0.00,,,0.03,Wunderground v.1.15,2013-02-10 03:20:00,
2013-02-09 22:21:00,22.2,19.2,30.35,East,85,4.0,4.0,88,0.00,,,0.03,Wunderground v.1.15,2013-02-10 03:21:00,
2013-02-09 22:22:00,22.2,19.2,30.35,ESE,108,4.0,4.0,88,0.00,,,0.03,Wunderground v.1.15,2013-02-10 03:22:00,
2013-02-09 22:24:00,22.2,19.5,30.36,SE,128,4.0,4.0,89,0.00,,,0.03,Wunderground v.1.15,2013-02-10 03:24:00,
2013-02-09 22:27:00,22.2,19.5,30.36,East,94,3.0,4.0,89,0.00,,,0.03,Wunderground v.1.15,2013-02-10 03:27:00,
2013-02-09 22:28:00,22.1,19.4,30.36,ESE,104,3.0,4.0,89,0.00,,,0.03,Wunderground v.1.15,2013-02-10 03:28:00,
2013-02-09 22:30:00,22.1,19.4,30.36,SE,136,3.0,4.0,89,0.00,,,0.03,Wunderground v.1.15,2013-02-10 03:30:00,
2013-02-09 22:32:00,22.1,19.4,30.35,ESE,123,3.0,4.0,89,0.00,,,0.03,Wunderground v.1.15,2013-02-10 03:32:00,
2013-02-09 22:33:00,22.1,19.4,30.35,ESE,119,3.0,4.0,89,0.00,,,0.03,Wunderground v.1.15,2013-02-10 03:33:00,
2013-02-09 22:36:00,22.0,19.3,30.35,ESE,119,3.0,5.0,89,0.00,,,0.03,Wunderground v.1.15,2013-02-10 03:36:00,
2013-02-09 22:37:00,22.0,19.3,30.35,SE,125,3.0,5.0,89,0.00,,,0.03,Wunderground v.1.15,2013-02-10 03:37:00,
2013-02-09 22:38:00,22.0,19.3,30.35,East,101,3.0,5.0,89,0.00,,,0.03,Wunderground v.1.15,2013-02-10 03:38:00,
2013-02-09 22:40:00,22.0,19.3,30.35,ESE,105,3.0,3.0,89,0.00,,,0.03,Wunderground v.1.15,2013-02-10 03:40:00,
2013-02-09 22:42:00,22.0,19.3,30.35,ESE,111,3.0,5.0,89,0.00,,,0.03,Wunderground v.1.15,2013-02-10 03:42:00,
2013-02-09 22:43:00,22.0,19.3,30.34,ESE,108,3.0,5.0,89,0.00,,,0.03,Wunderground v.1.15,2013-02-10 03:43:00,
2013-02-09 22:45:00,21.9,19.2,30.34,ESE,119,3.0,5.0,89,0.00,,,0.03,Wunderground v.1.15,2013-02-10 03:45:00,
2013-02-09 22:48:00,21.9,19.2,30.35,ESE,114,3.0,5.0,89,0.00,,,0.03,Wunderground v.1.15,2013-02-10 03:48:00,
2013-02-09 22:50:00,21.8,19.1,30.34,ESE,102,3.0,3.0,89,0.00,,,0.03,Wunderground v.1.15,2013-02-10 03:50:00,
2013-02-09 22:52:00,21.8,19.1,30.34,SSE,147,3.0,5.0,89,0.00,,,0.03,Wunderground v.1.15,2013-02-10 03:52:00,
2013-02-09 22:54:00,21.8,19.1,30.34,East,89,3.0,5.0,89,0.00,,,0.03,Wunderground v.1.15,2013-02-10 03:54:00,
2013-02-09 22:57:00,21.7,19.0,30.34,ESE,107,3.0,5.0,89,0.00,,,0.03,Wunderground v.1.15,2013-02-10 03:57:00,
2013-02-09 22:58:00,21.7,19.0,30.34,ESE,122,3.0,5.0,89,0.00,,,0.03,Wunderground v.1.15,2013-02-10 03:58:00,
2013-02-09 22:59:00,21.7,19.0,30.34,ESE,117,3.0,5.0,89,0.00,,,0.03,Wunderground v.1.15,2013-02-10 03:59:00,
2013-02-09 23:00:00,21.7,19.0,30.34,ESE,121,3.0,3.0,89,0.00,,,0.03,Wunderground v.1.15,2013-02-10 04:00:00,
2013-02-09 23:03:00,21.5,18.8,30.34,SE,143,3.0,3.0,89,0.00,,,0.03,Wunderground v.1.15,2013-02-10 04:03:00,
2013-02-09 23:05:00,21.5,18.8,30.34,East,85,3.0,5.0,89,0.00,,,0.03,Wunderground v.1.15,2013-02-10 04:05:00,
2013-02-09 23:07:00,21.5,19.0,30.34,East,91,3.0,5.0,90,0.00,,,0.03,Wunderground v.1.15,2013-02-10 04:07:00,
2013-02-09 23:09:00,21.5,19.0,30.34,SE,126,3.0,5.0,90,0.00,,,0.03,Wunderground v.1.15,2013-02-10 04:09:00,
2013-02-09 23:10:00,21.5,19.0,30.34,NNE,29,3.0,3.0,90,0.00,,,0.03,Wunderground v.1.15,2013-02-10 04:10:00,
2013-02-09 23:13:00,21.5,19.0,30.34,ENE,74,3.0,4.0,90,0.00,,,0.03,Wunderground v.1.15,2013-02-10 04:13:00,
2013-02-09 23:16:00,21.6,19.1,30.34,SE,135,3.0,4.0,90,0.00,,,0.03,Wunderground v.1.15,2013-02-10 04:16:00,
2013-02-09 23:17:00,21.6,19.1,30.34,East,80,3.0,4.0,90,0.00,,,0.03,Wunderground v.1.15,2013-02-10 04:17:00,
2013-02-09 23:18:00,21.5,19.0,30.34,ESE,105,3.0,4.0,90,0.00,,,0.03,Wunderground v.1.15,2013-02-10 04:18:00,
2013-02-09 23:20:00,21.5,19.0,30.34,ESE,108,3.0,3.0,90,0.00,,,0.03,Wunderground v.1.15,2013-02-10 04:20:00,
2013-02-09 23:21:00,21.5,19.0,30.34,SE,135,3.0,3.0,90,0.00,,,0.03,Wunderground v.1.15,2013-02-10 04:21:00,
2013-02-09 23:22:00,21.5,19.0,30.34,SSE,150,3.0,4.0,90,0.00,,,0.03,Wunderground v.1.15,2013-02-10 04:22:00,
2013-02-09 23:23:00,21.5,19.0,30.34,SE,132,3.0,4.0,90,0.00,,,0.03,Wunderground v.1.15,2013-02-10 04:23:00,
2013-02-09 23:25:00,21.5,19.0,30.34,SE,130,3.0,4.0,90,0.00,,,0.03,Wunderground v.1.15,2013-02-10 04:25:00,
2013-02-09 23:28:00,21.6,19.1,30.33,ESE,109,4.0,7.0,90,0.00,,,0.03,Wunderground v.1.15,2013-02-10 04:28:00,
2013-02-09 23:30:00,21.6,19.1,30.33,ENE,63,4.0,4.0,90,0.00,,,0.03,Wunderground v.1.15,2013-02-10 04:30:00,
2013-02-09 23:32:00,21.6,19.1,30.33,ESE,110,4.0,5.0,90,0.00,,,0.03,Wunderground v.1.15,2013-02-10 04:32:00,
2013-02-09 23:33:00,21.6,19.1,30.33,SE,138,4.0,5.0,90,0.00,,,0.03,Wunderground v.1.15,2013-02-10 04:33:00,
2013-02-09 23:35:00,21.6,19.1,30.33,SE,145,4.0,5.0,90,0.00,,,0.03,Wunderground v.1.15,2013-02-10 04:35:00,
2013-02-09 23:37:00,21.6,19.1,30.33,SE,146,4.0,5.0,90,0.00,,,0.03,Wunderground v.1.15,2013-02-10 04:37:00,
2013-02-09 23:38:00,21.5,19.0,30.33,SE,128,4.0,5.0,90,0.00,,,0.03,Wunderground v.1.15,2013-02-10 04:38:00,
2013-02-09 23:39:00,21.5,19.0,30.33,SE,130,4.0,6.0,90,0.00,,,0.03,Wunderground v.1.15,2013-02-10 04:39:00,
2013-02-09 23:42:00,21.6,19.1,30.33,East,88,4.0,5.0,90,0.00,,,0.03,Wunderground v.1.15,2013-02-10 04:42:00,
2013-02-09 23:43:00,21.5,19.0,30.33,ESE,102,4.0,5.0,90,0.00,,,0.03,Wunderground v.1.15,2013-02-10 04:43:00,
2013-02-09 23:45:00,21.5,19.0,30.33,ESE,114,4.0,5.0,90,0.00,,,0.03,Wunderground v.1.15,2013-02-10 04:45:00,
2013-02-09 23:48:00,21.4,18.9,30.33,ESE,119,4.0,5.0,90,0.00,,,0.03,Wunderground v.1.15,2013-02-10 04:48:00,
2013-02-09 23:49:00,21.4,18.9,30.33,SE,130,4.0,5.0,90,0.00,,,0.03,Wunderground v.1.15,2013-02-10 04:49:00,
2013-02-09 23:50:00,21.4,18.9,30.33,SSE,150,4.0,5.0,90,0.00,,,0.03,Wunderground v.1.15,2013-02-10 04:50:00,
2013-02-09 23:53:00,21.3,18.8,30.33,SE,135,4.0,5.0,90,0.00,,,0.03,Wunderground v.1.15,2013-02-10 04:53:00,
2013-02-09 23:55:00,21.2,18.7,30.33,SSE,150,4.0,6.0,90,0.00,,,0.03,Wunderground v.1.15,2013-02-10 04:55:00,
2013-02-09 23:57:00,21.2,19.0,30.33,SE,146,4.0,6.0,91,0.00,,,0.03,Wunderground v.1.15,2013-02-10 04:57:00,
2013-02-09 23:58:00,21.1,18.9,30.33,SE,135,4.0,6.0,91,0.00,,,0.03,Wunderground v.1.15,2013-02-10 04:58:00,
2013-02-09 23:59:00,21.1,18.9,30.34,SE,130,4.0,4.0,91,0.00,,,0.03,Wunderground v.1.15,2013-02-10 04:59:00,